Location: Unspecified
(49.9820°N, 20.4363°E)
Time: 04:21:35
(UTC+02:00)

Vanguard 3 - Pass Details

Date: 20 May 2026
Orbit: 507 x 3204 km, 33.3° (Epoch: 6 June)

Event Time Altitude Azimuth Distance (km) Brightness Sun altitude
Rises 18:35:14 0° 274° (W) 7,147 13.7 15.2°
Reaches altitude 10° 18:41:26 10° 264° (W) 6,105 13.2 14.2°
Maximum altitude 18:54:36 24° 220° (SW) 4,529 11.3 12.2°
Drops below altitude 10° 19:05:18 10° 173° (S) 4,852 10.9 10.5°
Sets 19:09:31 0° 160° (SSE) 5,449 11.0 9.9°
